Location: Angwan Shehu
(11.2514°N, 7.4613°E)
Time: 23:42:57
(UTC+00:00)

Vanguard 3 - Pass Details

Date: 30 July 2021
Orbit: 510 x 3260 km, 33.3° (Epoch: 18 September)

Event Time Altitude Azimuth Distance (km) Brightness Sun altitude
Rises 18:14:33 0° 276° (W) 5,667 13.5 -5.3°
Reaches altitude 10° 18:18:18 10° 285° (WNW) 5,007 13.0 -6.1°
Maximum altitude 18:32:39 39° 349° (N) 4,039 11.0 -9.4°
Drops below altitude 10° 18:50:36 10° 52° (NE) 6,143 11.3 -13.5°
Sets 18:55:55 0° 60° (ENE) 7,021 11.6 -14.7°
